KC7O Weather Reports


Display with metric or nautical units.
time (UTC)temp
F
wind
direction
speed
MPH
gust
MPH
rain 1hr
in
rain 24hr
in
rain mn
in
humidity
%
barometer
mb
20260510063357 60 137 0.0 0.0 0.00 0.00 0.00 88 1011.5
20260510062904 60 137 0.0 0.0 0.00 0.00 0.00 88 1011.5
20260510062409 60 137 0.0 0.0 0.00 0.00 0.00 88 1011.5
20260510061856 60 137 0.0 0.0 0.00 0.00 0.00 88 1011.4
20260510061402 60 137 0.0 0.0 0.00 0.00 0.00 88 1011.4
20260510060908 61 137 0.0 0.0 0.00 0.00 0.00 88 1011.4
20260510060352 61 137 0.0 0.0 0.00 0.00 0.00 87 1011.4
20260510055900 61 137 0.0 0.0 0.00 0.00 0.00 87 1011.6
20260510055405 61 137 0.0 0.0 0.00 0.00 0.00 86 1011.5
20260510054853 61 137 0.0 0.0 0.00 0.00 0.00 86 1011.5
20260510054359 61 137 0.0 0.0 0.00 0.00 0.00 86 1011.6
20260510053904 62 137 0.0 0.0 0.00 0.00 0.00 85 1011.6
20260510053409 62 137 0.0 0.0 0.00 0.00 0.00 85 1011.6
20260510052855 62 137 0.0 0.0 0.00 0.00 0.00 85 1011.6
20260510052400 62 137 0.0 0.0 0.00 0.00 0.00 84 1011.6
20260510051905 63 137 0.0 0.0 0.00 0.00 0.00 84 1011.4
20260510051429 63 137 0.0 0.0 0.00 0.00 0.00 84 1011.5
20260510050853 63 137 0.0 0.0 0.00 0.00 0.00 83 1011.5
20260510050357 63 137 0.0 0.0 0.00 0.00 0.00 83 1011.4
20260510045902 63 137 0.0 0.0 0.00 0.00 0.00 83 1011.5
20260510045405 63 137 0.0 0.0 0.00 0.00 0.00 82 1011.5
20260510044854 64 137 0.0 0.0 0.00 0.00 0.00 82 1011.5
20260510044400 64 137 0.0 0.0 0.00 0.00 0.00 82 1011.4
20260510043907 64 137 0.0 0.0 0.00 0.00 0.00 81 1011.4
20260510043411 64 137 0.0 0.0 0.00 0.00 0.00 80 1011.3
20260510042857 65 200 0.0 0.0 0.00 0.00 0.00 80 1011.2
20260510042359 65 200 0.0 0.0 0.00 0.00 0.00 79 1011.2
20260510041904 65 207 0.0 0.0 0.00 0.00 0.00 79 1011.2
20260510041427 65 207 0.0 0.0 0.00 0.00 0.00 79 1011.1
20260510040911 66 207 0.0 0.0 0.00 0.00 0.00 78 1011.1
20260510040356 66 207 0.0 0.0 0.00 0.00 0.00 78 1011.0
20260510035901 66 207 0.0 1.0 0.00 0.00 0.00 77 1010.9
20260510035407 66 206 0.0 1.0 0.00 0.00 0.00 77 1010.9
20260510034400 67 198 0.0 0.0 0.00 0.00 0.00 76 1010.7
20260510033900 67 198 0.0 0.0 0.00 0.00 0.00 75 1010.7
20260510033402 67 198 0.0 0.0 0.00 0.00 0.00 75 1010.6
20260510032907 68 204 0.0 0.0 0.00 0.00 0.00 74 1010.6
20260510032354 68 215 0.0 0.0 0.00 0.00 0.00 73 1010.6
20260510031858 68 224 0.0 0.0 0.00 0.00 0.00 73 1010.5
20260510031425 69 229 0.0 0.0 0.00 0.00 0.00 72 1010.4
20260510030910 69 229 0.0 2.0 0.00 0.00 0.00 72 1010.4
20260510030356 69 229 0.0 2.0 0.00 0.00 0.00 71 1010.3
20260510025902 69 154 0.0 1.0 0.00 0.00 0.00 70 1010.2
20260510025352 70 146 0.0 0.0 0.00 0.00 0.00 70 1010.2
20260510024858 70 174 0.0 1.0 0.00 0.00 0.00 69 1010.2
20260510024403 70 173 0.0 1.0 0.00 0.00 0.00 69 1010.2
20260510023907 71 206 0.0 2.0 0.00 0.00 0.00 68 1010.1
20260510023352 71 163 0.0 2.0 0.00 0.00 0.00 67 1010.1
20260510022857 71 242 0.0 1.0 0.00 0.00 0.00 67 1010.1
20260510022402 72 245 0.0 2.0 0.00 0.00 0.00 67 1010.1
20260510021906 72 217 0.0 2.0 0.00 0.00 0.00 66 1010.0
20260510021413 72 262 1.0 2.0 0.00 0.00 0.00 66 1010.0
20260510020857 73 255 1.0 3.0 0.00 0.00 0.00 65 1009.9
20260510020403 73 214 0.0 3.0 0.00 0.00 0.00 64 1009.9
20260510015930 73 182 1.0 4.0 0.00 0.00 0.00 64 1009.9
20260510015354 74 180 1.0 4.0 0.00 0.00 0.00 62 1009.9
20260510014901 75 161 0.0 3.0 0.00 0.00 0.00 62 1009.8
20260510014407 75 176 1.0 3.0 0.00 0.00 0.00 62 1009.8
20260510013915 75 156 1.0 2.0 0.00 0.00 0.00 61 1009.7
20260510012900 77 252 1.0 4.0 0.00 0.00 0.00 59 1009.7
20260510012407 77 166 1.0 4.0 0.00 0.00 0.00 58 1009.7
20260510011853 77 278 1.0 4.0 0.00 0.00 0.00 58 1009.7
20260510011400 78 188 1.0 3.0 0.00 0.00 0.00 57 1009.6
20260510010926 79 153 0.0 4.0 0.00 0.00 0.00 56 1009.6
20260510010410 78 276 1.0 6.0 0.00 0.00 0.00 57 1009.6
20260510005857 78 252 2.0 6.0 0.00 0.00 0.00 57 1009.6
20260510005359 79 155 1.0 4.0 0.00 0.00 0.00 56 1009.7
20260510004401 79 212 1.0 4.0 0.00 0.00 0.00 55 1009.6
20260510003907 79 161 2.0 4.0 0.00 0.00 0.00 54 1009.5
20260510003411 79 153 1.0 5.0 0.00 0.00 0.00 55 1009.5
20260510002856 79 251 1.0 5.0 0.00 0.00 0.00 55 1009.5
20260510002421 80 272 2.0 5.0 0.00 0.00 0.00 55 1009.6
20260510001925 80 257 1.0 5.0 0.00 0.00 0.00 54 1009.6
20260510001407 80 233 2.0 8.0 0.00 0.00 0.00 55 1009.5
20260510000853 79 224 2.0 8.0 0.00 0.00 0.00 55 1009.6
20260510000418 79 248 2.0 5.0 0.00 0.00 0.00 55 1009.6
20260509235901 79 158 2.0 4.0 0.00 0.00 0.00 55 1009.6
20260509235405 79 260 2.0 5.0 0.00 0.00 0.00 55 1009.7
20260509234931 80 252 3.0 6.0 0.00 0.00 0.00 55 1009.5
20260509234353 80 189 3.0 6.0 0.00 0.00 0.00 55 1009.6
20260509233857 80 179 3.0 7.0 0.00 0.00 0.00 55 1009.6
20260509233404 81 188 3.0 7.0 0.00 0.00 0.00 55 1009.5
20260509232910 81 148 1.0 9.0 0.00 0.00 0.00 55 1009.5
20260509232354 81 155 3.0 9.0 0.00 0.00 0.00 54 1009.5
20260509231901 81 250 2.0 6.0 0.00 0.00 0.00 54 1009.5
20260509231407 81 243 2.0 6.0 0.00 0.00 0.00 54 1009.6
20260509230855 82 266 2.0 5.0 0.00 0.00 0.00 54 1009.5
20260509230359 82 223 3.0 5.0 0.00 0.00 0.00 54 1009.5
20260509225907 82 217 2.0 7.0 0.00 0.00 0.00 54 1009.5
20260509225353 82 198 3.0 7.0 0.00 0.00 0.00 54 1009.5
20260509224900 82 160 3.0 8.0 0.00 0.00 0.00 53 1009.6
20260509223907 82 172 3.0 6.0 0.00 0.00 0.00 53 1009.8
20260509223411 82 212 2.0 6.0 0.00 0.00 0.00 52 1009.8
20260509222857 83 262 2.0 5.0 0.00 0.00 0.00 52 1009.8
20260509222401 83 133 1.0 5.0 0.00 0.00 0.00 52 1009.9
20260509221906 83 211 1.0 5.0 0.00 0.00 0.00 53 1010.0
20260509221355 82 271 2.0 6.0 0.00 0.00 0.00 53 1010.0
20260509220859 82 181 1.0 6.0 0.00 0.00 0.00 54 1010.1
20260509220404 82 194 2.0 7.0 0.00 0.00 0.00 53 1010.1
20260509215910 82 248 3.0 7.0 0.00 0.00 0.00 53 1010.2
20260509215415 82 207 2.0 5.0 0.00 0.00 0.00 53 1010.2
20260509214900 82 177 3.0 7.0 0.00 0.00 0.00 54 1010.3
20260509214406 81 137 3.0 7.0 0.00 0.00 0.00 54 1010.3
20260509213912 82 162 1.0 4.0 0.00 0.00 0.00 54 1010.4
20260509213353 82 185 2.0 5.0 0.00 0.00 0.00 54 1010.5
20260509212859 82 234 1.0 5.0 0.00 0.00 0.00 54 1010.5
20260509212404 82 193 2.0 7.0 0.00 0.00 0.00 54 1010.5
20260509211417 82 249 3.0 5.0 0.00 0.00 0.00 55 1010.6
20260509210858 82 150 2.0 4.0 0.00 0.00 0.00 55 1010.6
20260509210359 82 175 2.0 6.0 0.00 0.00 0.00 55 1010.6
20260509205904 81 229 3.0 6.0 0.00 0.00 0.00 55 1010.7
20260509205411 82 164 2.0 4.0 0.00 0.00 0.00 55 1010.8
20260509204858 81 219 2.0 4.0 0.00 0.00 0.00 56 1010.9
20260509204422 81 157 1.0 5.0 0.00 0.00 0.00 57 1011.0
20260509203907 81 171 2.0 5.0 0.00 0.00 0.00 57 1011.0
20260509203353 80 143 3.0 6.0 0.00 0.00 0.00 57 1011.1
20260509202856 80 178 2.0 6.0 0.00 0.00 0.00 58 1011.1
20260509202402 80 134 3.0 5.0 0.00 0.00 0.00 57 1011.1
20260509201906 80 158 3.0 6.0 0.00 0.00 0.00 57 1011.1
20260509201355 81 269 1.0 6.0 0.00 0.00 0.00 58 1011.1
20260509200920 80 162 2.0 6.0 0.00 0.00 0.00 58 1011.1
20260509200401 79 153 2.0 7.0 0.00 0.00 0.00 59 1011.2
20260509195908 80 94 3.0 7.0 0.00 0.00 0.00 58 1011.2
20260509195453 80 231 2.0 4.0 0.00 0.00 0.00 58 1011.2
20260509194911 79 192 2.0 8.0 0.00 0.00 0.00 60 1011.3
20260509194357 79 170 3.0 8.0 0.00 0.00 0.00 59 1011.3
20260509193901 79 191 3.0 6.0 0.00 0.00 0.00 59 1011.3
20260509193407 79 150 2.0 5.0 0.00 0.00 0.00 60 1011.4
20260509192911 78 275 1.0 4.0 0.00 0.00 0.00 60 1011.5
20260509192357 78 274 1.0 5.0 0.00 0.00 0.00 61 1011.6
20260509191905 78 256 2.0 5.0 0.00 0.00 0.00 61 1011.7
20260509191411 77 232 3.0 5.0 0.00 0.00 0.00 62 1011.6
20260509190856 77 212 2.0 6.0 0.00 0.00 0.00 63 1011.7
20260509190401 77 160 3.0 6.0 0.00 0.00 0.00 62 1011.7
20260509185907 77 134 2.0 7.0 0.00 0.00 0.00 61 1011.7
20260509185413 77 193 3.0 7.0 0.00 0.00 0.00 63 1011.8
20260509184857 76 218 3.0 6.0 0.00 0.00 0.00 63 1011.9
20260509184423 76 188 2.0 6.0 0.00 0.00 0.00 62 1011.9
20260509183906 76 123 2.0 5.0 0.00 0.00 0.00 64 1011.8
20260509183353 76 182 2.0 5.0 0.00 0.00 0.00 63 1011.9
20260509182859 76 203 1.0 4.0 0.00 0.00 0.00 64 1011.9
20260509181857 75 218 2.0 5.0 0.00 0.00 0.00 65 1011.9
20260509181403 74 280 2.0 5.0 0.00 0.00 0.00 66 1012.0
20260509180906 74 242 2.0 5.0 0.00 0.00 0.00 66 1012.1
20260509180411 74 244 2.0 5.0 0.00 0.00 0.00 65 1012.2
20260509175916 74 265 2.0 5.0 0.00 0.00 0.00 66 1012.1
20260509175400 74 175 1.0 4.0 0.00 0.00 0.00 67 1012.0
20260509174906 73 139 2.0 6.0 0.00 0.00 0.00 68 1012.1
20260509174430 73 165 2.0 6.0 0.00 0.00 0.00 68 1012.0
20260509173900 73 220 1.0 5.0 0.00 0.00 0.00 68 1012.0
20260509173403 73 147 1.0 3.0 0.00 0.00 0.00 68 1012.0
20260509172905 72 236 2.0 3.0 0.00 0.00 0.00 68 1012.0
20260509172411 72 223 1.0 5.0 0.00 0.00 0.00 70 1012.0
20260509171853 71 131 0.0 5.0 0.00 0.00 0.00 69 1012.1
20260509171358 71 189 1.0 4.0 0.00 0.00 0.00 69 1012.0
20260509170903 71 280 1.0 4.0 0.00 0.00 0.00 70 1012.0
20260509170407 71 177 1.0 4.0 0.00 0.00 0.00 71 1011.9
20260509165933 71 247 2.0 4.0 0.00 0.00 0.00 70 1011.9
20260509165413 70 253 1.0 3.0 0.00 0.00 0.00 72 1011.9
20260509164921 70 248 1.0 3.0 0.00 0.00 0.00 72 1012.0
20260509164411 69 169 0.0 4.0 0.00 0.00 0.00 73 1011.9
20260509163856 69 155 1.0 4.0 0.00 0.00 0.00 74 1011.9
20260509163358 69 224 0.0 3.0 0.00 0.00 0.00 74 1011.9
20260509162921 68 190 1.0 4.0 0.00 0.00 0.00 74 1011.9
20260509162408 68 170 1.0 4.0 0.00 0.00 0.00 76 1011.9
20260509161914 68 168 1.0 3.0 0.00 0.00 0.00 75 1012.0
20260509161417 68 238 0.0 0.0 0.00 0.00 0.00 76 1012.0
20260509160901 67 150 0.0 0.0 0.00 0.00 0.00 78 1012.1
20260509160424 67 139 0.0 0.0 0.00 0.00 0.00 77 1012.1
20260509155929 67 150 0.0 0.0 0.00 0.00 0.00 78 1012.1
20260509155352 66 157 0.0 0.0 0.00 0.00 0.00 79 1012.2
20260509154859 65 178 0.0 0.0 0.00 0.00 0.00 81 1012.2
20260509154404 64 209 0.0 0.0 0.00 0.00 0.00 83 1012.2
20260509153906 64 268 0.0 0.0 0.00 0.00 0.00 83 1012.2
20260509153430 63 283 0.0 0.0 0.00 0.00 0.00 85 1012.2
20260509152855 63 277 0.0 0.0 0.00 0.00 0.00 84 1012.3
20260509152359 63 298 0.0 0.0 0.00 0.00 0.00 85 1012.3
20260509151903 63 263 0.0 0.0 0.00 0.00 0.00 88 1012.3
20260509151406 62 263 0.0 0.0 0.00 0.00 0.00 89 1012.2
20260509150909 61 269 0.0 0.0 0.00 0.00 0.00 90 1012.2
20260509150407 60 269 0.0 0.0 0.00 0.00 0.00 91 1012.2
20260509145855 60 259 0.0 0.0 0.00 0.00 0.00 91 1012.3
20260509145357 59 259 0.0 0.0 0.00 0.00 0.00 92 1012.2
20260509144924 59 259 0.0 0.0 0.00 0.00 0.00 91 1012.2
20260509144409 59 257 0.0 0.0 0.00 0.00 0.00 91 1012.2
20260509143855 59 257 0.0 0.0 0.00 0.00 0.00 92 1012.2
20260509143401 59 257 0.0 0.0 0.00 0.00 0.00 92 1012.2
20260509142907 59 257 0.0 0.0 0.00 0.00 0.00 92 1012.2
20260509142352 59 237 0.0 0.0 0.00 0.00 0.00 92 1012.2
20260509141856 59 237 0.0 0.0 0.00 0.00 0.00 92 1012.2
20260509141401 59 234 0.0 0.0 0.00 0.00 0.00 92 1012.2
20260509140925 59 221 0.0 0.0 0.00 0.00 0.00 92 1012.2
20260509140352 59 171 0.0 0.0 0.00 0.00 0.00 93 1012.1
20260509135858 58 160 0.0 0.0 0.00 0.00 0.00 93 1012.1
20260509135402 58 160 0.0 0.0 0.00 0.00 0.00 93 1012.0
20260509134908 58 160 0.0 0.0 0.00 0.00 0.00 93 1012.0
20260509134354 58 160 0.0 0.0 0.00 0.00 0.00 93 1011.9
20260509133900 58 160 0.0 0.0 0.00 0.00 0.00 93 1011.9
20260509133405 58 160 0.0 0.0 0.00 0.00 0.00 93 1011.9
20260509132910 58 160 0.0 0.0 0.00 0.00 0.00 93 1011.8
20260509132355 58 236 0.0 0.0 0.00 0.00 0.00 93 1011.7
20260509131921 58 236 0.0 0.0 0.00 0.00 0.00 93 1011.7
20260509131425 58 236 0.0 0.0 0.00 0.00 0.00 94 1011.7
20260509130909 58 252 0.0 0.0 0.00 0.00 0.00 94 1011.7
20260509130359 58 252 0.0 0.0 0.00 0.00 0.00 94 1011.7
20260509125906 58 231 0.0 0.0 0.00 0.00 0.00 94 1011.7
20260509125351 58 146 0.0 0.0 0.00 0.00 0.00 94 1011.7
20260509124857 58 146 0.0 0.0 0.00 0.00 0.00 94 1011.6
20260509124400 58 146 0.0 0.0 0.00 0.00 0.00 94 1011.6
20260509123904 58 146 0.0 0.0 0.00 0.00 0.00 94 1011.6
20260509123431 58 146 0.0 0.0 0.00 0.00 0.00 94 1011.5
20260509122913 58 146 0.0 0.0 0.00 0.00 0.00 94 1011.5
20260509122358 58 146 0.0 0.0 0.00 0.00 0.00 94 1011.6
20260509121902 58 150 0.0 0.0 0.00 0.00 0.00 94 1011.5
20260509121406 58 35 0.0 0.0 0.00 0.00 0.00 94 1011.5
20260509120911 58 35 0.0 0.0 0.00 0.00 0.00 94 1011.4
20260509115902 58 35 0.0 0.0 0.00 0.00 0.00 94 1011.6
20260509115426 58 52 0.0 0.0 0.00 0.00 0.00 94 1011.7
20260509114909 58 55 0.0 0.0 0.00 0.00 0.00 94 1011.6
20260509114355 58 32 0.0 0.0 0.00 0.00 0.00 94 1011.6
20260509113901 58 28 0.0 0.0 0.00 0.00 0.00 94 1011.6
20260509113428 58 28 0.0 0.0 0.00 0.00 0.00 94 1011.6
20260509112851 58 28 0.0 0.0 0.00 0.00 0.00 94 1011.6
20260509112357 57 18 0.0 0.0 0.00 0.00 0.00 94 1011.6
20260509111904 57 18 0.0 0.0 0.00 0.00 0.00 94 1011.5
20260509111409 57 18 0.0 0.0 0.00 0.00 0.00 93 1011.5
20260509110914 58 27 0.0 0.0 0.00 0.00 0.00 94 1011.5
20260509110403 58 23 0.0 0.0 0.00 0.00 0.00 94 1011.6
20260509105910 58 50 0.0 0.0 0.00 0.00 0.00 94 1011.6
20260509105354 57 50 0.0 0.0 0.00 0.00 0.00 93 1011.6
20260509104900 58 7 0.0 0.0 0.00 0.00 0.00 93 1011.6
20260509104406 58 28 0.0 0.0 0.00 0.00 0.00 93 1011.6
20260509103852 58 28 0.0 0.0 0.00 0.00 0.00 93 1011.7
20260509103415 58 10 0.0 0.0 0.00 0.00 0.00 93 1011.7
20260509102402 58 33 0.0 0.0 0.00 0.00 0.00 93 1011.7
20260509101908 58 32 0.0 0.0 0.00 0.00 0.00 93 1011.7
20260509101357 58 33 0.0 0.0 0.00 0.00 0.00 93 1011.7
20260509100924 58 33 0.0 0.0 0.00 0.00 0.00 93 1011.8
20260509100408 58 33 0.0 0.0 0.00 0.00 0.00 93 1011.8
20260509095853 58 33 0.0 0.0 0.00 0.00 0.00 93 1011.9
20260509095358 58 33 0.0 0.0 0.00 0.00 0.00 93 1011.9
20260509094905 58 39 0.0 0.0 0.00 0.00 0.00 93 1012.0
20260509094411 58 121 0.0 0.0 0.00 0.00 0.00 93 1012.0
20260509093855 58 118 0.0 0.0 0.00 0.00 0.00 93 1012.1
20260509093405 58 131 0.0 0.0 0.00 0.00 0.00 93 1012.1
20260509092908 58 131 0.0 0.0 0.00 0.00 0.00 93 1012.1
20260509092354 58 358 0.0 0.0 0.00 0.00 0.00 93 1012.1
20260509091905 58 358 0.0 1.0 0.00 0.00 0.00 93 1012.1
20260509091408 58 358 0.0 1.0 0.00 0.00 0.00 93 1012.0
20260509090853 58 358 0.0 1.0 0.00 0.00 0.00 93 1012.0
20260509090356 58 136 0.0 1.0 0.00 0.00 0.00 93 1012.1
20260509085901 58 143 0.0 0.0 0.00 0.00 0.00 93 1012.1
20260509085407 58 143 0.0 0.0 0.00 0.00 0.00 93 1012.2
20260509084852 57 143 0.0 0.0 0.00 0.00 0.00 93 1012.3
20260509084419 57 143 0.0 0.0 0.00 0.00 0.00 93 1012.3
20260509083923 57 143 0.0 0.0 0.00 0.00 0.00 93 1012.2
20260509083405 57 143 0.0 0.0 0.00 0.00 0.00 92 1012.3
20260509082930 57 143 0.0 0.0 0.00 0.00 0.00 92 1012.3
20260509082354 57 143 0.0 0.0 0.00 0.00 0.00 92 1012.4
20260509081858 57 143 0.0 0.0 0.00 0.00 0.00 92 1012.4
20260509081400 57 143 0.0 0.0 0.00 0.00 0.00 92 1012.4
20260509080925 57 143 0.0 0.0 0.00 0.00 0.00 91 1012.4
20260509080428 57 143 0.0 0.0 0.00 0.00 0.00 91 1012.4
20260509075855 58 143 0.0 0.0 0.00 0.00 0.00 91 1012.4
20260509075359 58 143 0.0 0.0 0.00 0.00 0.00 91 1012.4
20260509073854 58 143 0.0 0.0 0.00 0.00 0.00 91 1012.5
20260509073359 58 143 0.0 0.0 0.00 0.00 0.00 90 1012.5
20260509072905 58 143 0.0 0.0 0.00 0.00 0.00 90 1012.5
20260509072410 59 143 0.0 0.0 0.00 0.00 0.00 90 1012.6
20260509071914 59 143 0.0 0.0 0.00 0.00 0.00 90 1012.7
20260509071358 59 143 0.0 0.0 0.00 0.00 0.00 90 1012.7
20260509070903 59 143 0.0 0.0 0.00 0.00 0.00 90 1012.7
20260509070409 59 143 0.0 0.0 0.00 0.00 0.00 90 1012.8
20260509065854 59 143 0.0 1.0 0.00 0.00 0.00 90 1012.8
20260509065359 59 143 0.0 1.0 0.00 0.00 0.00 90 1012.8
20260509064905 59 143 0.0 1.0 0.00 0.00 0.00 90 1012.7
20260509064410 59 143 0.0 0.0 0.00 0.00 0.00 89 1012.7
20260509063900 60 143 0.0 1.0 0.00 0.00 0.00 89 1012.7